Weather History for KLAM - February, 2014

Change the Weather History Date:

Sunday, February 23, 2014

  Actual Average Record
Temperature  
Mean Temperature 46 °F -  
Max Temperature 54 °F 45 °F 64 °F (2009)
Min Temperature 38 °F 21 °F -4 °F (1975)
Degree Days  
Heating Degree Days 19    
Moisture  
Dew Point -2 °F    
Average Humidity 15    
Maximum Humidity 27    
Minimum Humidity 4    
Precipitation  
Precipitation 0.00 in - - ()
Sea Level Pressure  
Sea Level Pressure 30.11 in    
Wind  
Wind Speed 4 mph (ESE)    
Max Wind Speed 16 mph    
Max Gust Speed -    
Visibility 10 miles    
Events      
Averages and records for this station are not official NWS values.
T = Trace of Precipitation, MM = Missing Value Source: NWS Daily Summary

Daily Weather History Graph

Daily Weather History Graph

Search for Another Location

Airport or City:

Trip Planner

Search our weather history database for the weather conditions in past years. The results will help you decide how hot, cold, wet, or windy it might be!

Date:

Astronomy

Feb. 23, 2014 Rise Set
Actual Time 6:42 AM MST 5:54 PM MST
Civil Twilight 6:16 AM MST 6:20 PM MST
Nautical Twilight 5:47 AM MST 6:50 PM MST
Astronomical Twilight 5:17 AM MST 7:19 PM MST
Moon 1:38 AM MST (2/23) 12:05 PM MST (2/23)
Length of Visible Light 12h 03m
Length of Day
11h 11m
Last Quarter, 38% of the Moon is Illuminated
Feb 23
Last Quarter
Mar 1
New
Mar 8
First Quarter
Mar 16
Full
Mar 23
Last Quarter

Hourly Weather History & Observations

Time (MST) Temp. Windchill Dew Point Humidity Pressure Visibility Wind Dir Wind Speed Gust Speed Precip Events Conditions
12:15 AM 40.8 °F 35.6 °F 5.5 °F 23% 30.04 in 10.0 mi SSW 8.1 mph - N/A   Clear
12:35 AM 40.8 °F 38.8 °F 6.1 °F 24% 30.05 in 10.0 mi SW 3.5 mph - N/A   Clear
12:55 AM 41.4 °F - 5.9 °F 23% 30.05 in 10.0 mi Calm Calm - N/A   Clear
1:15 AM 41.0 °F 38.0 °F 5.9 °F 23% 30.05 in 10.0 mi South 4.6 mph - N/A   Clear
1:35 AM 41.0 °F - 5.9 °F 23% 30.06 in 10.0 mi Calm Calm - N/A   Clear
1:55 AM 42.3 °F - 5.4 °F 22% 30.06 in 10.0 mi Calm Calm - N/A   Clear
2:15 AM 41.4 °F - 5.2 °F 22% 30.06 in 10.0 mi Calm Calm - N/A   Clear
2:35 AM 41.7 °F 39.8 °F 4.6 °F 22% 30.06 in 10.0 mi South 3.5 mph - N/A   Clear
2:55 AM 40.8 °F - 5.2 °F 23% 30.06 in 10.0 mi Calm Calm - N/A   Clear
3:15 AM 40.6 °F - 5.0 °F 23% 30.06 in 10.0 mi Calm Calm - N/A   Clear
3:35 AM 39.6 °F - 5.5 °F 24% 30.07 in 10.0 mi Calm Calm - N/A   Clear
3:55 AM 39.7 °F 37.6 °F 5.4 °F 24% 30.07 in 10.0 mi NW 3.5 mph - N/A   Clear
4:15 AM 41.7 °F - 4.8 °F 22% 30.07 in 10.0 mi Calm Calm - N/A   Clear
4:35 AM 41.5 °F - 4.6 °F 22% 30.07 in 10.0 mi Calm Calm - N/A   Clear
4:55 AM 41.0 °F - 4.6 °F 22% 30.08 in 10.0 mi Calm Calm - N/A   Clear
5:15 AM 39.4 °F - 5.2 °F 24% 30.09 in 10.0 mi Calm Calm - N/A   Clear
5:35 AM 40.1 °F - 4.3 °F 23% 30.09 in 10.0 mi Calm Calm - N/A   Clear
5:55 AM 39.7 °F - 4.3 °F 23% 30.10 in 10.0 mi Calm Calm - N/A   Clear
6:15 AM 40.8 °F - 3.0 °F 21% 30.10 in 10.0 mi Calm Calm - N/A   Clear
6:35 AM 40.5 °F - 3.2 °F 21% 30.11 in 10.0 mi Calm Calm - N/A   Clear
6:55 AM 39.9 °F - 3.4 °F 22% 30.11 in 10.0 mi Calm Calm - N/A   Clear
7:15 AM 40.3 °F - 3.2 °F 21% 30.12 in 10.0 mi Calm Calm - N/A   Clear
7:35 AM 40.5 °F - 3.9 °F 22% 30.13 in 10.0 mi Calm Calm - N/A   Clear
7:55 AM 38.8 °F - 7.0 °F 27% 30.13 in 10.0 mi Calm Calm - N/A   Clear
8:15 AM 39.4 °F - 6.6 °F 26% 30.14 in 10.0 mi Calm Calm - N/A   Clear
8:35 AM 40.6 °F - 7.9 °F 26% 30.15 in 10.0 mi Calm Calm - N/A   Clear
8:55 AM 42.3 °F - 7.5 °F 24% 30.15 in 10.0 mi Calm Calm - N/A   Clear
9:15 AM 43.2 °F 40.5 °F 7.0 °F 23% 30.15 in 10.0 mi ENE 4.6 mph - N/A   Clear
9:35 AM 44.2 °F 42.7 °F 7.3 °F 22% 30.15 in 10.0 mi NE 3.5 mph - N/A   Clear
9:55 AM 45.5 °F 43.2 °F 5.7 °F 20% 30.15 in 10.0 mi NNE 4.6 mph - N/A   Clear
10:15 AM 46.9 °F - 6.1 °F 19% 30.15 in 10.0 mi NE 5.8 mph - N/A   Clear
10:35 AM 48.2 °F - 6.4 °F 18% 30.15 in 10.0 mi ENE 4.6 mph - N/A   Clear
10:55 AM 48.6 °F - 4.6 °F 17% 30.15 in 10.0 mi NE 6.9 mph - N/A   Clear
11:15 AM 48.4 °F - 4.8 °F 17% 30.15 in 10.0 mi ENE 5.8 mph - N/A   Clear
11:35 AM 48.7 °F - 4.1 °F 16% 30.15 in 10.0 mi ENE 5.8 mph - N/A   Clear
11:55 AM 50.5 °F - 2.1 °F 14% 30.15 in 10.0 mi ENE 4.6 mph - N/A   Clear
12:15 PM 50.9 °F - 1.0 °F 13% 30.14 in 10.0 mi East 5.8 mph - N/A   Clear
12:35 PM 51.1 °F - 0.3 °F 12% 30.13 in 10.0 mi East 4.6 mph - N/A   Clear
12:55 PM 51.6 °F - -0.0 °F 12% 30.12 in 10.0 mi ENE 8.1 mph - N/A   Clear
1:15 PM 51.4 °F - -0.4 °F 12% 30.12 in 10.0 mi ESE 6.9 mph - N/A   Clear
1:35 PM 53.2 °F - 0.1 °F 11% 30.11 in 10.0 mi East 8.1 mph - N/A   Clear
1:55 PM 53.1 °F - -1.3 °F 11% 30.11 in 10.0 mi South 4.6 mph - N/A   Clear
2:15 PM 54.3 °F - -2.2 °F 10% 30.10 in 10.0 mi SE 5.8 mph - N/A   Clear
2:35 PM 54.0 °F - -2.0 °F 10% 30.09 in 10.0 mi SE 4.6 mph - N/A   Clear
2:55 PM 53.8 °F - -2.9 °F 10% 30.09 in 10.0 mi Calm Calm - N/A   Clear
3:15 PM 54.7 °F - -3.6 °F 9% 30.09 in 10.0 mi SE 6.9 mph - N/A   Clear
3:35 PM 54.1 °F - -4.0 °F 9% 30.09 in 10.0 mi ENE 4.6 mph - N/A   Clear
3:55 PM 54.0 °F - -2.4 °F 10% 30.09 in 10.0 mi East 5.8 mph - N/A   Clear
4:15 PM 54.1 °F - -3.1 °F 10% 30.09 in 10.0 mi East 5.8 mph - N/A   Clear
4:35 PM 53.6 °F - -2.9 °F 10% 30.09 in 10.0 mi ENE 5.8 mph - N/A   Clear
4:55 PM 52.0 °F - -2.7 °F 10% 30.09 in 10.0 mi East 5.8 mph - N/A   Clear
5:15 PM 53.1 °F - -3.6 °F 10% 30.11 in 10.0 mi Calm Calm - N/A   Clear
5:35 PM 52.3 °F - -15.3 °F 6% 30.11 in 10.0 mi West 10.4 mph - N/A   Clear
5:55 PM 51.4 °F - -20.4 °F 5% 30.11 in 10.0 mi WSW 15.0 mph - N/A   Clear
6:15 PM 50.0 °F - -18.0 °F 5% 30.12 in 10.0 mi West 16.1 mph - N/A   Clear
6:35 PM 50.5 °F - -22.2 °F 4% 30.13 in 10.0 mi West 15.0 mph - N/A   Clear
6:55 PM 50.0 °F - -22.7 °F 4% 30.13 in 10.0 mi WSW 12.7 mph - N/A   Clear
7:15 PM 48.7 °F - -21.6 °F 5% 30.13 in 10.0 mi West 11.5 mph - N/A   Clear
7:35 PM 49.3 °F - -22.0 °F 5% 30.13 in 10.0 mi West 10.4 mph - N/A   Clear
7:55 PM 49.1 °F - -20.9 °F 5% 30.13 in 10.0 mi West 12.7 mph - N/A   Clear
8:15 PM 49.5 °F - -20.4 °F 5% 30.12 in 10.0 mi West 13.8 mph - N/A   Clear
8:35 PM 49.1 °F - -17.1 °F 6% 30.13 in 10.0 mi WSW 12.7 mph - N/A   Clear
8:55 PM 47.3 °F - -17.1 °F 6% 30.13 in 10.0 mi West 12.7 mph - N/A   Clear
9:15 PM 47.3 °F - -14.6 °F 7% 30.13 in 10.0 mi West 12.7 mph - N/A   Clear
9:35 PM 46.8 °F - -12.3 °F 8% 30.14 in 10.0 mi West 6.9 mph - N/A   Clear
9:55 PM 46.4 °F 45.2 °F -12.5 °F 8% 30.15 in 10.0 mi WNW 3.5 mph - N/A   Clear
10:15 PM 46.4 °F - -13.7 °F 8% 30.15 in 10.0 mi Calm Calm - N/A   Clear
10:35 PM 46.9 °F - -13.2 °F 8% 30.15 in 10.0 mi Calm Calm - N/A   Clear
10:55 PM 47.3 °F - -9.0 °F 9% 30.14 in 10.0 mi Calm Calm - N/A   Clear
11:15 PM 46.4 °F - -9.9 °F 9% 30.14 in 10.0 mi Calm Calm - N/A   Clear
11:35 PM 46.0 °F 44.8 °F -8.5 °F 10% 30.14 in 10.0 mi West 3.5 mph - N/A   Clear
11:55 PM 44.8 °F - -5.6 °F 12% 30.13 in 10.0 mi Calm Calm - N/A   Clear